Meteo Giornale » Osservazioni meteo India » Gauhati
ore: 00:00 - Osservazioni Meteo Gauhati
Lat. 26° 6' N Lon. 91° 35' E Alt. 47 metri s.l.m.
27 °C
Pioggia
Temp. 24 Ore
25 °C
31 °C
Nord
0 Km/h
Dew point 27 °C
Umidità 100 %
Visibilità 2 Km
Il sole sorge alle ore 05:03
Il sole tramonta alle ore 17:43
| Data e Ora | Cielo e Fenomeni | T °C | DP °C | Um. % | Pres. hPa | Vis. km | Vento km/h | |
|---|---|---|---|---|---|---|---|---|
| Oggi h: 00:00 | Pioggia | 27 | 27 | 100 | 1005 | 2 | N 0 | |
| Ieri h: 23:30 | Pioggia | 26 | 26 | 100 | 1005 | 2 | N 0 | |
| Ieri h: 23:00 | Pioggia | 26 | 26 | 100 | 1005 | 2 | N 0 | |
| Ieri h: 22:30 | Pioggia | 26 | 26 | 100 | 1005 | 2 | N 5.5 | |
| Ieri h: 22:00 | Pioggia | 26 | 26 | 100 | 1005 | 2 | N 0 | |
| Ieri h: 21:30 | Pioggia | 26 | 26 | 100 | 1005 | 2 | N 0 | |
| Ieri h: 21:00 | Pioggia | 26 | 26 | 100 | 1005 | 2 | N 0 | |
| Ieri h: 20:30 | Temporale | 26 | 26 | 100 | 1005 | 2 | N 0 | |
| Ieri h: 20:00 | Temporale | 26 | 26 | 100 | 1005 | 2 | N 3.7 | |
| Ieri h: 19:30 | Temporale | 26 | 26 | 100 | 1005 | 2 | N 3.7 | |
| Ieri h: 19:00 | Temporale | 26 | 26 | 100 | 1004 | 2 | N 0 | |
| Ieri h: 18:30 | Temporale | 25 | 25 | 100 | 1003 | 2 | N 0 | |
| Ieri h: 18:00 | Temporale | 25 | 25 | 100 | 1003 | 2 | S/SE 18.5 | |
| Ieri h: 17:30 | Temporale | 26 | 26 | 100 | 1002 | 3 | SO 11.1 | |
| Ieri h: 17:00 | Temporale | 27 | 26 | 94 | 1002 | 3 | O/SO 11.1 | |
| Ieri h: 16:30 | Temporale | 29 | 26 | 83 | 1002 | 3 | S 18.5 | |
| Ieri h: 16:00 | Foschia | 31 | 27 | 79 | 1001 | 4 | N/NE 18.5 | |
| Ieri h: 15:30 | Foschia | 31 | 27 | 79 | 1001 | 4 | NE 22.2 | |
| Ieri h: 15:00 | Foschia | 31 | 27 | 79 | 1001 | 4 | N/NE 16.7 | |
| Ieri h: 14:30 | Foschia | 31 | 27 | 79 | 1001 | 4 | N 22.2 | |
| Ieri h: 14:00 | Foschia | 31 | 27 | 79 | 1001 | 4 | N/NE 16.7 | |
| Ieri h: 13:30 | Foschia | 31 | 27 | 79 | 1002 | 4 | N 11.1 | |
| Ieri h: 13:00 | Foschia | 31 | 27 | 79 | 1002 | 4 | N/NO 13 | |
| Ieri h: 12:30 | Foschia | 30 | 26 | 79 | 1003 | 4 | N 11.1 | |
| Ieri h: 12:00 | Foschia | 30 | 27 | 84 | 1003 | 4 | N/NE 11.1 | |
| Ieri h: 11:30 | Foschia | 29 | 26 | 83 | 1004 | 3 | N/NE 11.1 | |
| Ieri h: 11:00 | Foschia | 29 | 26 | 83 | 1004 | 3 | N/NE 11.1 | |
| Ieri h: 10:30 | Foschia | 29 | 27 | 89 | 1004 | 3 | N/NE 14.8 | |
| Ieri h: 10:00 | Foschia | 29 | 27 | 89 | 1004 | 3 | N/NE 14.8 | |
| Ieri h: 09:30 | Foschia | 29 | 27 | 89 | 1004 | 3 | N 13 | |
| Ieri h: 09:00 | Foschia | 28 | 27 | 94 | 1005 | 3 | NE 11.1 | |
| Ieri h: 08:30 | Foschia | 28 | 27 | 94 | 1005 | 3 | E/NE 16.7 | |
| Ieri h: 08:00 | Foschia | 27 | 27 | 100 | 1005 | 2 | NE 11.1 | |
| Ieri h: 07:30 | Pioggia | 27 | 27 | 100 | 1005 | 2 | E/NE 7.4 | |
| Ieri h: 07:00 | Pioggia | 26 | 26 | 100 | 1005 | 2 | E/NE 9.3 | |
| Ieri h: 06:30 | Pioggia | 26 | 26 | 100 | 1004 | 2 | N/NE 9.3 | |
| Ieri h: 06:00 | Pioggia | 26 | 26 | 100 | 1005 | 3 | NO 9.3 | |
| Ieri h: 05:30 | Pioggia | 26 | 26 | 100 | 1005 | 3 | N 5.5 | |
| Ieri h: 05:00 | Pioggia | 26 | 26 | 100 | 1004 | 3 | N 5.5 | |
| Ieri h: 04:30 | Pioggia | 27 | 27 | 100 | 1004 | 3 | N 5.5 | |
| Ieri h: 04:00 | Foschia | 27 | 27 | 100 | 1003 | 3 | O/NO 13 | |
| Ieri h: 03:30 | Foschia | 27 | 27 | 100 | 1003 | 3 | S 9.3 | |
| Ieri h: 03:00 | Foschia | 27 | 27 | 100 | 1002 | 3 | S 7.4 | |
| Ieri h: 02:30 | Foschia | 27 | 27 | 100 | 1002 | 3 | S/SO 9.3 | |
| Ieri h: 02:00 | Foschia | 28 | 28 | 100 | 1002 | 3 | SE 9.3 | |
| Ieri h: 01:30 | Foschia | 28 | 27 | 94 | 1003 | 3 | SE 9.3 | |



